Theta_e
338 338 338 339 340 339 339 339 339 340 340 339 340 340 339 338 336 334 332 332 333 334 334 334 334 334 334 335 334 335 335 335 335 335 334 334 335 335 334 333 331 330 326 323 327 331 332 331 330 328 327 327 325 325 327 327 326 324 325 326 325 325 326 325 323 323 325 325 325 324 323 323 322 322 321 321 322 322 322 323 324 325 325 326 326
339 338 338 338 338 338 338 338 338 339 339 339 339 339 340 339 339 338 336 334 333 333 334 333 333 333 333 334 334 334 335 335 335 334 335 335 335 335 334 333 332 331 330 326 325 328 332 331 330 329 328 327 325 326 326 327 327 325 325 326 326 325 325 325 324 324 325 325 325 325 324 324 323 323 322 322 322 322 322 323 323 324 324 325 325
338 338 337 337 337 338 338 338 338 338 338 338 338 338 338 339 339 339 339 338 336 335 334 333 333 333 333 333 333 334 334 334 334 334 334 334 335 336 335 334 332 331 331 329 325 326 331 332 331 330 328 327 326 326 326 327 327 326 325 326 326 326 324 323 324 324 325 325 325 325 324 325 325 324 323 323 323 323 322 323 322 322 322 323 324
337 337 337 338 338 338 338 338 337 337 337 337 336 337 337 337 338 338 339 339 338 337 336 335 334 333 333 333 334 334 334 334 335 335 334 334 335 336 336 336 334 332 331 330 328 325 328 331 331 331 329 327 327 326 327 327 327 326 326 326 326 326 323 322 324 324 325 325 324 325 325 325 325 325 324 324 324 324 323 322 321 320 321 322 323
337 337 337 338 338 338 337 337 337 337 337 337 336 337 336 337 337 337 337 338 338 339 338 338 337 336 336 335 335 336 336 335 335 336 335 335 335 335 336 336 335 334 333 331 330 327 326 329 331 331 330 328 327 327 327 327 327 327 326 326 326 326 324 323 323 323 324 324 324 325 325 325 325 325 325 324 323 323 323 322 320 319 321 322 322
337 337 338 338 337 337 337 337 337 337 337 337 337 337 336 337 336 336 336 336 337 338 338 338 338 337 337 337 337 337 337 336 336 336 336 336 336 336 336 336 335 336 335 334 332 329 326 326 329 331 330 329 328 327 327 327 328 328 327 326 326 326 325 324 324 323 324 324 324 325 325 325 325 324 324 324 323 323 323 323 320 319 321 321 321
337 338 338 338 337 337 337 337 337 337 337 337 337 337 337 337 337 336 335 335 335 336 337 337 337 337 337 337 337 337 337 337 336 336 336 336 336 337 337 336 336 335 336 336 335 332 329 326 327 329 330 329 329 329 328 328 328 328 328 327 327 326 325 325 325 324 324 324 324 325 325 325 325 324 323 323 324 324 324 323 321 320 321 321 322
337 337 338 337 337 337 337 337 337 337 337 337 337 337 337 337 337 336 336 335 335 336 336 337 336 336 337 337 337 336 337 337 337 337 336 337 337 337 337 337 337 336 335 336 336 335 333 329 326 327 328 328 328 329 329 329 328 329 328 328 328 327 326 326 325 324 325 324 324 325 324 325 325 325 323 323 324 324 325 324 323 322 322 322 323
337 336 337 337 337 337 337 337 337 337 337 337 337 337 337 337 336 336 336 336 336 337 337 337 336 336 336 336 336 336 336 336 336 337 337 337 337 337 337 337 337 337 336 336 335 335 336 333 329 326 327 328 327 327 329 330 329 329 329 329 328 328 326 326 325 325 325 325 325 325 324 324 325 325 324 324 323 324 325 324 324 323 323 323 323
336 336 337 337 337 337 337 337 337 337 337 337 337 337 337 337 337 336 336 336 337 337 337 336 336 336 336 336 336 336 336 336 336 337 337 337 337 337 337 337 337 337 337 336 336 335 336 335 332 328 327 327 327 326 327 329 330 329 329 329 329 328 327 326 326 325 325 326 325 325 325 324 324 325 325 324 323 324 325 324 324 323 323 323 323
336 336 337 336 336 336 336 336 336 336 336 336 337 337 337 337 336 336 337 337 337 337 337 337 336 336 335 335 336 336 336 336 337 337 336 337 337 337 337 337 336 337 337 336 336 336 336 336 334 331 329 328 328 326 324 325 329 330 329 329 330 329 328 327 326 324 325 326 325 325 325 323 323 325 325 324 324 324 325 324 323 323 323 323 322
335 335 335 335 335 335 335 335 335 336 335 336 336 335 335 336 335 335 336 336 336 336 337 337 337 337 336 335 335 336 336 336 336 336 336 336 336 336 336 336 336 336 336 336 336 336 335 335 335 333 333 332 330 327 324 321 324 329 330 329 329 329 328 328 326 324 324 325 325 325 325 323 323 324 325 324 324 325 325 324 323 323 322 322 322
334 335 334 334 335 334 335 335 335 335 336 336 335 335 335 334 334 335 334 335 335 336 336 336 337 337 336 335 335 336 336 336 336 336 336 335 335 335 335 335 335 335 335 335 335 335 335 335 335 334 334 334 332 330 325 321 321 327 330 330 330 330 329 328 326 325 326 326 324 324 324 324 322 323 324 324 325 325 325 324 324 322 321 321 320
333 333 334 334 334 334 334 334 335 335 335 335 335 335 334 334 334 334 334 334 334 334 336 336 335 335 335 334 334 334 335 337 337 336 336 334 334 334 334 334 334 334 334 334 334 334 334 334 335 335 334 334 333 331 329 325 322 324 328 329 330 331 329 328 327 326 327 327 325 324 324 323 322 323 324 324 325 325 325 324 324 322 320 320 319
332 332 332 333 333 333 333 333 333 333 334 334 334 334 334 334 333 333 333 333 333 334 335 335 334 334 334 333 333 331 332 335 336 335 334 334 334 334 333 333 333 333 333 333 333 333 333 333 334 334 334 333 333 332 331 330 326 324 326 327 328 330 330 329 328 327 328 328 326 325 324 323 322 323 324 324 325 326 325 324 323 321 321 320 319
330 330 330 330 330 331 331 331 331 331 331 331 330 331 331 332 332 332 332 332 332 333 333 334 333 333 333 332 331 331 330 330 332 332 332 333 334 334 333 333 333 332 332 333 332 332 332 333 333 333 333 333 333 332 331 331 330 327 325 325 326 328 329 330 329 328 328 328 328 326 325 323 321 323 323 324 325 325 325 325 323 322 321 321 320
327 327 327 327 327 327 327 328 327 327 327 326 326 326 327 328 328 329 330 331 331 332 332 332 332 332 332 331 331 330 329 330 331 331 331 332 332 332 332 333 332 332 332 332 332 332 332 332 332 333 333 333 333 333 331 331 331 330 327 326 326 326 327 330 330 329 328 328 328 327 326 323 321 322 323 324 325 325 325 325 324 322 321 321 320
324 323 323 323 323 323 324 324 324 323 323 323 324 323 324 324 324 325 327 328 329 330 331 331 331 331 331 332 332 331 331 332 331 330 330 330 330 331 331 331 332 332 332 331 331 331 332 332 332 333 333 333 333 332 332 331 331 331 330 328 327 326 326 328 330 330 329 329 329 329 328 324 321 321 322 323 324 325 325 325 324 323 321 321 320
321 320 320 321 321 320 321 321 321 320 320 321 321 321 322 323 323 323 324 326 327 328 329 329 330 330 330 331 331 331 332 331 330 329 329 329 329 330 330 330 330 331 331 331 331 331 331 332 333 333 333 333 333 332 332 332 331 330 329 327 327 328 327 326 329 330 330 329 328 329 328 326 322 321 322 323 324 325 325 325 324 322 322 320 319
318 318 318 318 319 318 318 318 318 318 318 319 318 319 320 321 321 322 323 324 325 326 327 328 329 329 329 329 330 330 330 330 330 329 329 329 329 329 328 328 329 330 330 330 330 330 331 331 333 334 334 333 333 333 332 332 332 331 330 327 326 328 329 327 327 329 330 329 328 328 329 328 324 321 321 322 324 325 325 325 324 322 321 319 318
316 316 316 316 316 316 316 316 316 316 316 317 317 317 318 318 319 319 320 321 321 323 325 325 326 327 328 328 329 329 329 329 329 329 329 328 327 327 328 328 328 329 329 330 330 330 330 331 331 332 333 333 333 333 333 332 332 332 331 329 327 326 328 328 327 328 329 329 329 329 329 328 327 324 322 322 323 324 325 325 324 322 320 318 318
315 314 314 314 313 313 313 313 313 313 313 313 314 315 315 316 317 318 319 319 319 320 321 322 323 324 324 326 327 328 329 329 328 328 328 328 327 327 329 328 328 328 328 328 329 330 330 331 331 332 332 333 333 333 333 332 332 331 330 330 328 326 326 328 328 327 328 329 328 329 328 328 329 326 323 322 323 324 324 325 324 322 320 318 318
313 312 311 311 310 310 310 310 310 310 311 311 312 312 313 314 315 315 316 316 316 317 317 318 319 320 321 322 324 326 327 328 328 328 328 328 327 327 328 328 327 328 328 328 328 329 330 331 331 332 332 333 333 334 333 333 331 331 330 330 329 327 326 327 328 328 328 328 328 327 328 328 328 328 326 323 323 324 324 324 324 322 321 318 318
312 310 309 309 310 310 309 309 309 309 309 310 310 310 311 312 312 312 312 313 313 313 314 315 316 317 318 319 320 322 323 324 325 326 326 327 327 327 328 327 327 328 328 328 329 329 330 331 331 332 332 333 333 333 334 333 332 331 330 330 329 328 326 325 327 328 328 328 328 327 327 328 328 328 327 325 323 324 324 324 323 322 321 318 317
311 310 309 309 309 309 308 308 308 308 308 308 309 309 310 310 310 309 310 310 310 310 312 313 313 314 315 316 318 319 320 321 322 323 324 324 325 326 327 327 328 329 328 328 328 329 329 330 331 332 332 333 333 333 334 334 334 332 331 330 329 329 327 325 326 327 327 328 328 328 327 327 328 328 328 326 324 324 324 324 323 322 321 319 317
310 309 309 308 308 307 307 307 307 307 307 307 308 308 308 308 308 308 308 308 308 309 310 311 312 312 313 314 315 316 317 318 319 320 320 321 322 324 325 326 327 328 328 327 328 328 329 329 330 330 331 332 333 333 333 333 334 333 332 331 330 330 329 327 326 326 327 328 328 328 327 326 327 328 328 327 325 324 324 324 323 322 320 318 317
309 308 307 307 307 306 306 306 306 306 306 306 307 308 308 307 307 307 307 307 307 308 309 309 310 310 311 312 313 314 315 316 316 317 318 319 320 321 322 323 324 325 325 326 328 328 328 328 329 329 330 331 332 334 334 333 334 334 333 332 331 330 330 329 327 326 326 327 327 327 327 327 326 327 327 327 326 324 324 323 322 321 320 318 315
307 307 306 306 306 305 305 305 305 305 305 306 306 307 307 307 307 307 307 307 307 308 308 308 309 309 310 310 311 312 313 313 314 314 315 316 317 317 318 319 320 322 323 324 326 327 327 328 328 329 330 330 332 333 333 333 334 333 333 332 331 331 330 329 328 326 325 325 327 327 327 327 327 326 327 327 327 325 324 323 322 321 320 318 313
306 306 305 304 304 304 304 304 304 304 304 305 305 306 306 307 307 307 306 307 307 307 307 308 308 308 309 309 310 311 311 311 311 312 312 313 314 314 315 315 316 318 320 320 322 324 326 327 327 328 329 328 330 331 332 333 333 333 332 332 332 331 331 330 329 327 325 325 326 328 327 328 328 327 326 326 326 326 324 323 322 321 320 317 312
306 305 304 304 304 304 304 304 303 303 303 304 304 305 305 305 306 306 305 306 307 307 307 307 307 307 308 308 308 309 309 309 309 310 311 311 311 312 312 313 313 315 316 317 318 321 323 325 326 327 328 328 328 330 331 332 333 333 333 333 332 331 330 330 330 329 327 325 326 327 328 327 327 328 326 325 326 326 325 323 322 321 320 317 312
305 304 304 304 303 303 303 303 303 302 302 303 303 303 304 304 304 304 304 305 306 306 306 306 306 306 307 307 307 308 307 307 308 309 309 309 309 309 309 310 311 312 313 314 315 316 318 320 322 324 326 327 328 330 330 329 331 332 333 333 332 331 330 330 330 329 328 327 326 326 328 328 327 328 326 325 326 326 325 324 322 321 320 317 311
304 304 304 304 303 303 303 302 302 302 302 302 302 302 303 303 303 303 303 303 304 304 305 305 305 305 306 306 306 306 306 306 306 307 307 307 307 307 307 308 309 309 310 311 311 312 313 316 318 320 323 325 327 330 330 327 328 331 332 332 331 331 330 330 330 329 328 327 327 326 327 328 328 328 327 326 326 325 325 324 323 321 320 318 311
303 303 303 303 303 302 302 302 302 302 301 301 302 302 302 302 302 302 302 302 302 303 304 304 304 304 304 305 305 305 304 305 305 306 306 306 305 305 306 306 306 307 307 308 308 309 311 312 314 317 320 322 325 328 330 329 327 329 331 331 331 331 330 330 330 329 328 328 327 327 327 328 328 328 328 328 326 325 325 325 323 322 321 319 311
303 303 303 303 302 302 302 302 301 301 301 301 301 301 301 301 301 301 301 301 302 302 303 302 303 303 303 304 304 303 303 303 304 304 304 304 304 304 304 304 305 305 305 306 306 308 309 309 311 313 316 320 323 324 328 329 328 328 330 331 330 330 330 329 330 329 328 328 328 328 328 328 329 328 327 328 326 325 325 325 324 322 321 320 313
303 302 302 302 302 302 302 301 301 300 300 300 300 300 301 301 301 300 300 301 301 301 302 302 302 303 303 302 302 302 302 302 302 302 302 302 302 302 302 303 303 304 304 304 305 306 306 307 309 311 313 317 321 323 326 329 328 327 329 331 330 329 329 328 329 329 328 328 328 329 329 329 329 328 327 328 327 325 325 325 324 323 322 321 314
302 302 302 302 302 301 301 301 300 300 300 300 300 300 300 300 300 300 300 300 301 301 301 302 302 302 301 301 301 301 301 301 301 301 301 301 300 300 301 301 301 302 302 303 304 304 305 306 307 309 311 314 318 322 325 327 329 328 328 330 330 329 328 328 328 329 328 328 329 328 329 329 329 328 327 328 327 325 325 325 324 323 321 321 315
302 302 302 301 301 301 301 301 300 300 299 299 299 299 299 300 300 300 300 300 300 301 301 301 301 301 301 301 300 300 300 300 300 300 299 299 298 299 299 299 300 300 300 301 302 303 304 305 306 307 309 312 316 320 324 326 328 329 328 327 328 329 329 328 328 329 329 329 329 328 329 329 329 329 327 327 327 326 325 325 325 324 321 321 317
301 301 301 301 301 301 300 300 300 299 299 298 298 298 298 299 300 300 300 300 300 300 300 300 300 300 300 300 299 299 299 299 299 298 298 297 297 297 297 298 298 299 299 300 301 302 303 305 306 307 308 310 313 317 321 324 327 328 328 327 326 327 328 329 328 329 329 328 329 328 328 328 328 329 328 327 327 326 326 325 325 325 322 321 319
301 301 301 301 301 301 300 300 299 299 298 297 297 297 297 297 298 300 300 299 300 301 300 300 299 299 299 299 299 299 299 298 298 297 297 296 296 296 296 297 297 298 299 299 300 301 303 304 305 307 308 309 311 314 318 322 325 327 327 327 327 326 327 328 329 329 329 328 328 328 328 328 328 328 328 328 328 327 326 325 325 325 324 322 320
300 300 300 300 301 300 300 300 299 298 297 296 295 295 296 296 297 300 300 300 300 300 300 299 299 299 298 298 298 298 298 297 296 296 296 295 295 295 296 296 297 297 298 299 300 300 302 303 304 305 307 308 310 312 316 320 323 326 326 326 326 326 327 329 329 329 329 328 328 328 327 327 327 327 327 327 328 327 326 326 325 325 324 323 321
300 300 300 300 301 300 300 299 298 298 297 295 294 293 293 294 296 299 300 300 300 300 299 299 299 298 298 298 298 297 297 296 295 295 295 294 294 295 295 296 296 296 297 298 299 300 301 302 303 304 305 307 308 310 312 315 319 322 323 325 325 325 326 328 328 328 329 328 328 327 327 327 326 325 325 325 327 327 326 326 325 325 324 324 322
299 299 300 300 300 300 300 299 298 297 296 295 293 292 292 294 296 299 300 299 299 299 299 299 298 298 297 297 297 297 296 296 295 295 295 294 294 294 294 295 295 296 296 297 298 299 300 301 302 303 304 305 306 308 309 311 313 317 319 322 325 326 326 327 327 328 328 328 327 325 325 326 325 323 323 324 325 326 326 326 326 325 325 324 323
299 299 300 300 300 300 300 299 298 298 296 294 292 292 293 295 296 298 299 299 299 299 298 298 297 297 297 296 296 296 296 296 295 295 295 294 294 294 294 294 295 295 296 297 298 298 299 300 301 301 302 304 304 305 307 308 310 314 317 319 322 325 326 325 326 327 327 327 326 324 324 325 325 322 321 323 324 324 325 326 326 326 325 325 324
299 300 300 300 300 300 299 299 298 297 295 293 292 292 293 295 296 297 299 298 298 298 297 297 297 296 296 296 296 296 296 295 296 295 294 294 293 294 294 295 296 296 297 297 297 297 298 299 300 300 301 302 303 304 306 307 308 311 313 314 316 321 325 325 325 326 327 327 326 324 323 323 323 321 320 321 323 324 325 326 326 326 326 325 325
299 299 299 300 299 299 299 299 298 297 295 293 292 292 293 295 296 297 298 298 298 298 297 297 297 296 296 296 296 296 295 295 295 294 293 293 293 294 295 295 296 297 297 296 297 297 298 299 299 300 300 301 302 303 303 304 305 306 308 310 312 316 322 325 326 326 326 326 325 323 322 322 321 320 319 320 321 322 324 326 326 326 325 325 325
299 299 299 299 299 299 299 299 298 297 294 292 292 291 293 295 296 296 297 297 297 297 296 296 296 296 296 295 295 295 295 295 295 293 292 293 293 294 295 296 296 296 296 296 297 297 298 298 298 298 299 299 300 300 301 302 303 304 306 308 310 313 317 320 323 325 325 325 324 324 323 322 320 320 320 320 320 321 323 325 325 324 325 324 324
298 298 298 298 298 298 298 298 298 297 294 292 292 292 293 295 296 296 297 297 297 297 296 296 296 296 296 295 295 295 295 295 294 292 292 292 293 294 295 295 295 295 296 296 296 296 296 296 296 296 297 297 298 299 300 300 302 303 304 306 308 309 310 312 316 322 325 324 324 324 323 323 321 320 321 321 320 321 321 323 323 323 324 324 324
298 298 298 298 298 298 298 298 298 297 294 292 292 291 292 294 296 297 297 297 296 296 296 296 296 296 295 295 295 294 294 294 293 292 291 292 293 294 294 294 294 295 295 296 295 294 294 294 295 295 296 297 298 299 300 301 302 303 303 304 305 305 307 311 316 321 324 324 324 324 324 323 322 321 321 321 321 321 320 321 322 322 323 324 324
298 298 297 297 297 297 297 297 298 298 295 292 291 291 291 292 296 297 296 296 296 296 296 296 296 295 295 295 294 294 294 293 292 292 291 292 293 294 294 293 294 294 295 295 294 293 294 294 295 296 296 298 299 301 301 302 303 303 302 302 303 305 308 314 318 322 324 324 323 323 324 324 323 322 322 322 321 321 321 320 321 322 324 324 322
297 297 297 297 298 297 297 296 296 297 296 293 291 292 291 291 294 296 295 295 296 296 296 296 295 295 295 295 294 293 293 292 292 291 291 292 293 294 293 293 293 293 293 293 293 293 293 294 295 295 296 298 299 301 301 301 302 303 302 302 303 306 310 315 319 322 324 324 323 323 324 324 323 322 322 322 321 321 321 320 320 322 323 323 322
297 297 297 297 297 297 297 297 296 296 297 295 292 292 292 292 293 295 295 295 295 296 296 295 295 295 295 295 294 292 292 292 291 292 291 291 292 293 293 293 292 292 292 292 292 293 293 293 294 295 296 297 298 300 300 301 301 302 303 304 305 306 310 315 319 321 323 324 322 323 324 324 323 322 322 321 319 319 320 320 320 321 322 321 320
Wind_Speed
1 1 1 1 1 1 2 2 1 2 2 2 2 2 2 2 3 4 5 5 5 5 6 7 8 9 9 9 9 9 9 9 9 9 9 9 9 11 13 12 11 11 11 11 12 12 12 11 11 11 12 12 10 9 10 9 8 8 7 6 6 6 5 5 5 6 5 5 6 5 5 5 5 5 5 4 5 6 7 8 8 7 7 7 7
1 1 2 1 1 1 2 2 2 2 2 3 2 3 3 3 3 4 5 5 6 6 7 8 9 9 10 10 10 10 10 10 10 10 10 11 11 11 14 14 12 13 13 13 14 13 13 12 12 12 12 12 12 11 11 11 10 9 8 8 7 7 7 7 6 6 5 5 6 5 5 6 6 6 6 5 6 7 7 7 8 7 8 8 7
1 1 1 1 2 2 2 2 2 3 3 3 3 3 4 4 4 4 5 6 6 6 8 9 10 10 10 11 11 10 10 11 11 11 12 12 12 12 13 15 15 15 15 15 16 15 14 14 13 13 13 13 13 13 12 12 12 11 10 9 9 8 8 8 8 8 7 6 6 6 6 6 6 6 7 7 7 7 7 7 7 7 9 9 8
1 1 1 1 2 2 2 2 2 3 3 3 3 3 4 4 5 5 6 6 7 7 8 9 10 11 11 11 11 11 12 12 12 12 13 13 13 12 12 14 16 16 17 17 18 17 16 16 15 14 14 14 14 14 13 13 13 12 11 11 11 10 9 8 9 9 9 8 7 7 7 7 6 6 7 7 7 8 8 7 7 8 10 10 8
1 1 1 1 1 2 2 1 2 2 2 2 3 3 3 4 5 5 6 7 7 8 8 9 10 11 11 12 11 12 12 12 12 12 13 13 13 13 12 13 14 16 17 18 19 19 18 18 16 15 15 15 16 16 15 15 15 14 13 12 12 11 10 10 9 10 10 9 8 8 8 8 7 7 8 7 7 8 9 9 8 11 12 11 10
1 1 1 1 1 1 1 1 2 2 3 3 3 4 4 4 4 5 6 7 8 8 8 9 10 10 11 11 11 12 11 12 13 13 13 13 12 12 13 13 13 14 15 17 19 20 21 19 18 18 17 16 18 18 16 16 16 15 14 13 13 12 12 11 11 11 11 9 10 9 9 10 9 9 9 8 8 9 9 9 10 12 12 12 12
1 1 1 1 1 1 2 2 3 3 3 4 4 4 4 4 4 5 6 7 8 8 9 9 10 10 11 11 11 11 11 12 12 13 13 12 12 12 12 13 13 13 13 15 17 19 21 22 21 20 19 18 19 19 18 17 17 17 15 15 14 14 13 13 12 13 12 10 11 10 10 10 10 10 10 9 9 9 9 9 10 12 13 12 13
1 1 1 2 2 2 3 3 4 4 4 4 5 5 5 6 6 6 7 7 8 9 9 10 10 11 11 11 12 12 12 12 12 12 12 12 12 12 12 12 13 13 13 14 15 16 19 22 22 22 21 21 20 20 19 18 18 18 17 16 15 15 15 14 14 14 14 12 12 12 11 11 11 11 11 11 10 9 10 10 10 11 12 12 12
1 1 2 3 3 4 4 4 4 4 5 5 5 6 6 6 7 6 7 8 8 9 10 10 10 11 11 12 12 13 12 12 12 12 12 13 13 13 13 13 13 13 14 14 15 15 17 20 23 23 22 23 22 21 21 20 20 20 20 18 17 17 16 15 15 15 15 14 14 13 12 12 12 11 11 11 11 11 11 10 10 11 12 12 12
3 2 3 3 4 4 4 4 5 5 5 6 6 6 6 6 7 7 7 8 8 9 10 11 11 11 12 12 12 13 13 13 13 12 12 13 13 13 12 12 13 13 13 14 15 15 15 18 21 23 23 23 23 23 24 23 22 22 22 20 19 19 18 17 17 16 16 15 15 14 14 13 13 12 12 12 12 12 12 11 11 11 11 12 11
4 4 4 4 5 5 5 5 6 6 6 6 6 7 7 7 8 8 8 8 9 9 10 10 11 12 13 14 14 14 14 13 13 13 12 13 13 13 12 12 12 13 13 14 14 15 16 16 18 21 23 24 25 25 25 25 24 24 23 22 21 20 20 18 18 18 17 16 15 15 15 15 14 14 13 13 13 14 14 13 12 12 11 12 11
5 5 5 5 5 6 6 6 6 6 6 6 7 7 8 8 9 9 9 9 9 9 9 10 11 13 14 14 14 14 14 14 13 12 12 12 11 11 11 11 12 12 13 14 14 14 16 17 17 18 19 22 24 26 26 27 27 27 24 24 24 23 21 20 20 20 19 18 17 17 17 17 16 15 15 15 14 15 15 14 13 12 12 12 12
6 6 6 6 6 6 6 6 6 5 5 5 6 6 6 7 7 8 9 9 9 8 8 10 11 12 12 12 13 14 14 13 13 12 11 10 10 10 10 11 12 13 13 14 14 15 16 17 18 18 18 19 21 24 27 28 29 30 27 25 25 24 24 22 22 22 21 20 19 18 18 19 18 17 16 16 16 16 16 15 14 13 13 13 12
7 6 6 7 7 7 6 6 7 6 6 6 6 6 5 6 7 9 9 10 11 9 8 10 10 10 12 11 11 10 9 11 10 9 9 9 10 10 12 13 13 14 14 14 15 15 16 16 17 18 18 19 19 21 24 26 30 32 31 28 25 25 26 26 23 22 22 22 20 20 20 20 20 19 18 18 18 17 17 17 16 15 14 13 13
7 7 7 7 8 8 8 8 8 8 9 8 8 8 7 8 9 10 11 12 12 9 7 9 10 12 12 9 8 8 6 7 7 7 9 11 12 12 12 13 14 15 15 15 16 15 15 16 16 18 19 20 20 20 21 23 27 32 34 32 29 26 26 27 26 24 24 23 22 22 22 21 21 21 20 20 19 18 18 18 17 17 15 14 14
7 7 6 7 7 8 8 8 8 9 10 9 10 10 10 10 10 11 12 13 13 12 9 10 11 11 9 8 7 8 6 6 8 10 11 11 11 12 13 13 14 15 15 16 17 16 17 17 17 18 19 20 21 21 21 21 23 28 33 34 33 30 28 28 28 26 25 25 24 23 23 23 23 23 22 21 20 20 20 19 18 17 16 15 14
8 8 7 7 8 8 8 9 9 10 11 11 11 11 11 11 11 12 13 13 14 15 13 11 11 11 9 9 8 6 6 9 12 12 10 10 12 13 14 15 15 15 16 17 17 17 18 18 18 17 18 20 20 21 22 22 22 24 28 33 34 33 31 29 28 28 27 26 26 25 24 24 25 25 24 23 22 22 21 20 19 17 17 16 15
10 10 9 9 10 9 9 9 9 11 12 11 11 11 12 12 12 12 13 13 14 15 15 13 13 12 12 10 9 9 10 11 11 9 10 13 14 14 14 14 15 16 17 18 18 18 18 19 19 18 19 19 21 22 22 23 23 24 26 31 34 34 34 32 29 29 29 28 27 26 26 25 25 27 26 25 24 23 23 21 19 18 17 17 16
10 10 11 11 11 11 11 11 11 11 12 12 13 13 12 11 12 12 12 12 13 14 15 15 14 13 12 12 13 14 14 12 10 9 10 12 14 15 16 15 14 15 17 18 19 19 19 19 18 19 19 19 20 22 23 24 25 27 29 31 33 33 35 35 33 31 30 29 29 28 27 25 26 28 29 26 25 24 24 23 21 19 18 17 17
11 11 11 11 11 12 13 12 12 12 12 12 13 12 11 11 12 12 11 11 12 14 15 14 14 14 14 14 15 15 15 15 15 13 10 9 11 15 16 15 15 16 17 18 19 20 20 20 19 19 19 19 20 21 23 25 25 28 30 32 34 35 34 35 36 35 32 31 31 30 28 27 26 28 31 29 26 26 25 24 22 20 19 19 19
11 12 12 12 12 12 12 11 10 10 9 9 10 10 10 10 11 11 11 11 11 12 14 14 14 15 15 16 16 15 16 16 16 14 12 11 10 11 13 15 16 17 18 18 18 19 20 21 21 20 19 20 20 21 23 25 26 28 29 31 35 38 37 35 36 38 36 33 32 30 31 29 27 27 31 31 28 27 26 25 23 21 20 20 20
10 11 11 12 12 12 11 10 9 9 9 9 9 9 10 10 10 10 11 11 11 11 13 13 14 14 15 16 16 16 15 14 14 14 14 13 11 11 15 16 14 16 18 18 18 18 19 20 21 21 20 20 21 21 22 24 26 27 27 29 33 38 40 37 36 37 38 37 33 30 31 31 29 28 30 32 30 29 28 27 24 22 21 21 21
10 11 12 13 12 12 11 11 11 11 10 10 10 10 10 10 10 10 10 11 11 11 12 12 13 13 14 14 15 15 15 14 15 17 15 13 12 11 15 19 18 18 19 18 19 19 20 21 21 20 21 21 21 20 21 23 26 26 26 28 32 36 40 40 38 37 37 38 36 33 32 32 32 30 30 32 32 30 29 28 26 24 22 22 22
10 12 13 13 12 12 12 11 11 11 11 10 10 10 10 10 10 10 10 10 10 11 10 11 12 12 13 13 14 15 16 16 18 19 18 17 16 11 14 20 18 19 22 20 20 20 19 20 20 19 20 21 20 20 20 22 25 28 28 28 31 35 39 41 41 39 37 38 38 37 34 32 33 33 31 31 32 31 30 29 27 25 23 23 23
10 11 12 11 11 11 11 11 11 11 11 10 10 11 11 10 10 11 11 10 11 11 11 11 12 12 13 13 13 14 15 16 17 18 18 19 18 13 16 20 16 18 23 22 21 20 19 18 18 18 19 20 20 19 20 20 22 27 29 28 29 33 37 41 42 41 39 38 38 39 37 34 33 35 34 32 32 32 31 30 28 26 25 26 25
10 10 10 10 10 11 11 11 11 12 13 12 11 11 11 10 11 12 12 11 12 12 11 12 12 13 13 13 14 14 14 15 16 17 17 18 18 16 17 18 18 19 22 22 22 20 18 18 16 17 18 19 20 19 19 20 21 25 28 29 30 32 35 39 42 42 40 38 39 40 40 38 35 34 35 34 33 33 33 31 29 28 28 28 28
10 10 10 10 10 11 12 13 13 14 14 14 12 11 12 11 11 13 13 12 13 13 12 13 14 14 14 14 15 14 14 15 15 16 17 17 18 19 18 14 14 15 15 19 21 20 20 19 17 17 17 18 19 19 19 20 21 24 27 29 31 33 35 38 41 42 41 39 40 41 41 41 39 36 36 37 35 34 34 32 30 31 31 30 29
9 10 11 11 12 12 14 15 15 15 15 14 14 12 12 11 11 12 13 12 13 14 13 14 15 15 15 15 16 15 14 15 16 16 17 17 17 19 19 15 12 10 10 13 14 17 21 22 19 18 16 16 18 20 20 19 20 23 26 28 31 34 36 38 40 42 43 42 41 41 41 42 41 39 37 38 37 35 35 34 32 34 33 32 30
9 10 11 12 13 13 14 15 16 16 15 15 15 14 12 12 12 13 14 13 13 13 14 14 15 15 15 16 16 15 15 16 17 16 16 17 17 18 18 17 14 10 8 9 10 14 20 22 22 20 19 19 18 19 20 20 21 22 24 26 30 34 36 38 39 41 44 44 42 41 42 42 43 41 39 38 38 38 37 36 35 36 35 33 32
9 9 11 12 13 13 14 15 16 17 17 16 15 15 14 13 13 14 15 14 13 13 14 14 14 15 15 16 16 15 16 16 17 17 16 17 17 17 17 17 17 13 10 10 10 14 21 23 24 24 25 26 21 18 20 21 23 23 22 24 28 33 36 38 39 40 43 46 44 41 42 43 43 43 41 39 40 40 40 38 37 37 37 35 33
10 10 11 12 12 13 14 16 16 17 17 16 16 16 16 15 15 15 16 15 14 14 14 14 14 14 15 16 16 16 16 17 17 17 17 17 17 18 17 17 17 16 16 13 9 14 20 21 25 27 27 30 26 21 24 26 26 24 22 23 26 30 35 37 38 39 41 44 44 42 42 44 44 44 43 42 42 43 43 42 39 38 37 36 35
10 10 11 12 12 14 15 16 16 17 17 17 16 17 17 17 16 16 16 16 15 14 14 14 14 14 15 16 15 16 17 17 17 17 17 18 18 18 18 18 17 16 18 16 11 16 22 21 23 27 27 29 28 24 27 30 29 27 23 23 25 29 33 36 38 39 39 41 43 43 44 44 44 44 43 43 43 43 45 44 41 39 38 37 36
11 11 11 12 12 13 14 15 16 16 17 17 17 17 17 17 16 15 16 16 16 15 15 15 15 15 15 16 16 17 18 17 18 18 18 19 19 19 19 19 19 18 18 18 14 16 23 23 22 26 26 26 28 27 27 27 28 26 24 23 23 26 31 34 36 38 38 39 41 42 44 44 44 44 44 43 43 44 47 48 44 41 38 37 37
11 12 11 12 12 13 14 15 16 17 17 17 17 17 17 17 16 16 16 16 16 15 15 16 16 16 16 17 17 18 19 18 18 19 19 20 20 20 20 19 20 20 19 20 18 16 22 25 25 26 27 25 26 28 25 24 26 27 24 23 23 26 30 34 36 36 37 38 39 40 42 44 45 45 45 45 44 44 48 50 46 42 40 38 38
12 12 12 12 12 13 14 15 17 18 18 18 18 17 17 17 17 16 16 16 16 16 16 16 16 17 17 17 18 19 20 19 19 19 19 20 21 20 21 20 20 22 20 20 21 20 23 26 25 25 26 26 26 28 25 23 25 27 24 22 24 26 29 33 35 36 36 38 40 41 41 44 46 46 46 47 46 45 48 50 48 44 41 39 38
12 12 12 13 13 13 14 15 16 18 19 19 19 18 17 17 16 17 17 16 16 16 16 16 17 17 18 18 18 20 20 20 20 20 20 22 23 21 22 22 21 22 22 20 21 23 24 26 26 25 25 26 27 27 25 23 23 24 25 25 25 27 30 33 35 36 36 38 40 42 42 43 46 47 48 48 48 47 48 49 49 46 43 40 38
12 12 12 12 12 13 14 15 16 18 18 19 19 19 18 17 16 16 17 16 16 16 15 16 16 17 18 19 19 20 21 21 20 21 22 23 23 22 22 23 23 23 24 23 23 23 24 26 27 26 25 25 26 26 25 23 21 20 23 28 29 30 31 31 32 33 35 38 39 42 43 44 45 47 49 50 50 50 48 48 49 48 47 43 39
12 12 12 12 12 13 13 15 16 17 18 19 19 19 19 18 16 16 16 16 15 15 15 15 16 17 18 19 20 21 21 22 22 22 23 24 23 23 23 24 24 25 27 26 24 23 24 25 26 26 25 24 24 26 25 23 22 20 21 25 29 31 31 30 30 31 34 38 39 41 44 45 45 48 51 51 51 51 50 49 50 50 49 44 39
11 11 12 12 12 12 13 14 15 16 18 19 20 20 19 19 17 15 15 16 15 14 15 16 16 17 19 19 20 20 21 21 22 23 24 25 25 25 26 25 25 26 27 27 25 24 23 24 23 23 24 23 23 25 25 24 22 21 20 21 23 27 30 31 31 31 33 37 39 39 41 45 47 49 52 54 53 53 51 50 51 51 50 46 41
11 11 12 12 11 12 12 13 14 16 18 20 22 23 22 21 18 14 15 16 15 15 15 16 17 18 20 20 19 19 20 20 23 24 25 26 28 28 28 27 27 27 26 25 25 24 23 23 23 22 23 22 22 23 23 22 20 19 19 20 22 25 26 29 32 32 31 35 38 39 40 44 48 51 53 55 54 54 53 52 52 52 51 49 45
11 12 12 12 12 12 12 13 14 16 18 21 25 26 26 24 19 14 14 15 15 15 16 16 17 19 20 20 19 20 20 21 24 25 25 27 30 30 29 29 29 28 26 25 24 24 23 23 23 23 22 21 21 22 22 22 21 20 22 23 24 25 25 28 34 35 32 33 36 39 41 45 48 51 54 55 55 55 55 53 51 51 51 50 48
12 12 12 12 12 12 12 13 14 16 18 21 25 27 27 24 19 14 14 16 15 15 17 18 18 20 21 20 20 21 22 24 26 27 28 32 32 31 31 30 30 29 27 26 25 24 24 24 23 23 22 21 21 22 23 24 24 24 25 24 23 23 23 22 24 29 33 33 34 36 40 43 46 49 52 54 55 56 56 54 53 51 51 52 51
12 12 12 12 12 11 12 13 14 15 18 22 25 28 25 22 19 15 14 16 16 16 18 19 19 21 21 22 22 22 23 26 28 29 31 34 34 34 33 32 30 29 27 27 27 26 25 24 24 24 23 23 25 24 24 25 25 23 23 25 24 22 19 15 11 16 27 34 34 34 37 41 44 46 49 53 55 56 56 55 53 53 53 53 52
12 12 12 12 12 12 11 13 14 15 19 23 27 29 25 21 21 17 14 16 16 17 19 20 20 21 22 23 23 23 25 28 29 31 33 34 34 34 34 32 30 28 26 26 28 29 28 27 27 26 25 26 27 26 24 24 25 25 25 27 27 24 21 18 13 13 21 31 34 32 32 38 42 41 44 51 54 55 56 55 55 55 55 55 53
12 13 13 13 13 12 11 12 13 16 20 24 27 29 24 20 21 19 16 16 16 17 20 20 19 21 22 23 24 25 27 28 29 32 33 34 34 33 32 30 29 27 27 27 28 28 29 29 28 28 28 28 29 29 27 27 28 28 28 27 26 24 22 21 21 21 20 25 32 28 24 32 40 38 37 45 50 52 54 56 56 57 57 57 55
12 13 13 13 13 13 12 12 13 16 21 24 26 28 25 20 20 19 16 16 17 18 19 20 20 20 21 23 25 26 28 28 30 33 35 34 33 31 30 30 29 29 29 28 26 26 27 27 27 28 29 30 32 34 32 30 30 30 28 27 26 25 25 25 25 25 23 25 32 27 17 25 37 35 33 40 45 48 52 54 56 58 57 57 56
11 12 12 12 13 13 12 12 12 15 20 23 24 27 26 21 19 18 16 16 18 18 19 20 20 20 21 23 25 27 28 28 31 36 37 35 32 31 30 30 30 30 30 28 27 27 28 29 29 30 32 33 35 37 37 34 33 33 32 31 31 30 31 32 30 25 24 27 32 27 15 21 35 34 32 38 41 42 47 50 54 58 57 57 57
11 12 12 12 12 13 13 12 12 14 18 22 23 26 27 22 19 18 17 16 18 19 19 20 20 20 21 23 26 28 27 28 32 37 38 35 31 30 30 30 31 31 30 29 29 30 31 32 33 34 35 35 36 37 38 36 36 36 34 32 32 29 27 25 24 23 24 26 32 32 20 20 32 34 30 35 39 39 41 45 50 56 57 57 57
11 11 11 11 12 12 13 13 12 12 15 20 21 24 26 24 20 18 17 17 18 19 20 20 19 20 21 22 26 27 26 28 33 37 38 36 31 29 30 31 32 31 30 31 32 32 33 33 34 33 33 33 32 31 31 30 30 29 25 26 28 26 20 15 14 17 20 23 31 37 27 21 29 33 29 32 39 40 39 42 48 54 55 56 57
11 10 10 10 11 11 12 13 13 11 13 17 20 22 24 25 23 19 18 18 18 18 19 20 19 20 21 21 25 27 27 30 34 36 38 36 31 30 32 32 32 32 33 33 33 34 35 34 32 30 30 29 27 26 27 26 24 21 18 22 26 23 18 14 12 13 16 21 30 36 28 21 28 33 28 25 30 37 40 42 48 53 54 55 57
10 10 10 10 10 10 10 11 12 12 12 15 19 21 22 24 24 20 18 19 19 18 19 20 19 20 21 21 24 28 29 31 33 35 38 37 32 31 33 32 31 33 35 33 32 34 35 33 31 30 29 27 24 24 24 23 21 18 16 19 22 21 19 18 17 13 9 13 26 34 28 20 25 33 29 19 13 21 34 42 48 53 55 56 56
Wind_Direction
354 323 350 0 350 336 325 332 328 316 312 316 308 296 291 281 276 268 263 261 256 253 253 254 252 253 254 254 254 258 259 257 263 265 263 264 261 265 273 277 268 254 249 239 225 221 229 240 244 240 243 256 250 227 231 237 236 233 222 218 215 215 206 203 203 190 186 174 162 158 160 159 149 144 144 147 145 144 148 149 150 151 142 136 132
339 10 20 7 0 355 349 345 337 330 321 323 317 300 293 285 286 284 279 273 267 264 264 263 260 257 256 255 256 257 258 258 261 263 260 259 260 262 270 276 272 258 249 244 236 226 225 234 242 241 238 243 243 232 231 234 233 236 236 225 217 217 213 208 203 197 199 185 166 162 161 158 158 152 145 137 132 137 145 150 153 149 142 142 140
340 38 28 15 28 19 12 8 352 342 335 330 321 313 306 297 296 292 288 284 279 273 269 268 267 265 262 261 262 261 260 262 262 260 260 261 260 258 264 271 272 263 251 245 242 235 225 227 236 239 239 239 240 234 230 235 233 234 238 228 219 219 218 213 205 201 203 195 173 168 166 160 160 154 146 140 133 136 142 147 155 153 148 146 142
43 63 50 26 30 26 24 19 2 340 332 329 323 320 312 305 306 303 297 292 285 277 274 272 270 271 271 271 271 268 267 266 264 262 261 262 261 258 256 261 266 265 257 247 243 240 231 223 225 233 239 237 238 235 230 234 233 232 235 229 223 221 218 213 206 202 204 202 185 177 175 167 164 157 151 149 145 144 144 142 146 146 143 142 140
53 63 62 43 30 32 28 8 350 328 324 325 322 319 311 310 315 315 310 302 292 284 280 276 275 275 275 276 276 274 274 272 270 268 266 265 263 261 257 256 258 260 260 254 244 241 237 227 219 224 234 236 236 234 230 232 233 232 232 228 224 221 218 213 209 205 204 206 194 187 183 172 170 167 160 156 156 153 147 141 137 137 137 138 136
36 48 51 30 24 31 0 334 326 315 321 325 321 316 309 311 314 313 310 305 297 292 289 283 281 281 281 281 280 280 279 277 275 273 270 269 265 262 261 260 256 253 254 256 251 243 238 232 224 219 224 232 234 231 229 231 231 230 229 229 224 220 221 214 211 209 205 206 197 193 191 177 176 180 169 163 164 159 151 144 138 136 137 138 137
25 36 30 357 358 358 341 331 321 312 313 315 314 310 308 309 311 309 305 302 296 294 293 289 287 286 287 287 283 283 281 280 279 276 274 272 267 262 261 262 260 255 249 251 253 249 241 235 231 224 220 225 230 229 229 228 229 229 228 230 225 219 223 218 215 214 206 205 199 197 197 183 184 189 181 176 173 164 158 152 144 142 141 142 141
13 12 345 328 336 338 338 328 320 316 311 311 307 303 307 307 305 304 300 296 291 290 289 286 287 285 286 287 286 285 283 282 280 279 278 274 269 265 263 262 261 258 253 249 251 252 247 239 234 231 227 226 225 227 229 228 228 229 227 228 226 221 224 220 219 219 211 207 200 200 203 191 189 194 191 190 185 174 166 161 156 153 149 147 145
13 339 319 321 324 323 327 324 319 317 309 312 308 301 307 305 301 300 295 293 288 286 287 285 286 287 287 287 287 287 283 281 278 277 277 274 270 267 265 264 262 259 256 252 250 249 250 246 238 234 234 232 227 224 227 229 228 230 229 225 224 223 224 221 219 221 215 211 204 201 207 201 194 197 196 195 192 182 175 169 165 163 157 152 150
15 354 344 334 330 327 327 327 320 314 309 311 310 304 306 304 303 304 301 300 297 293 294 293 291 291 289 286 285 284 281 277 274 271 271 272 272 270 269 265 263 262 259 255 252 247 246 247 242 237 237 236 231 226 225 228 228 230 231 226 221 219 220 219 218 220 216 213 207 202 211 212 202 200 200 198 195 186 178 175 171 167 162 158 155
20 5 359 351 344 338 335 334 326 320 319 316 317 317 315 312 312 315 314 307 301 299 299 298 296 292 287 284 280 276 274 271 269 268 268 270 272 272 270 267 263 262 262 260 256 249 243 241 238 234 236 238 235 230 227 228 229 229 230 229 224 219 219 217 216 220 215 213 211 204 212 220 209 202 203 201 197 189 180 177 174 170 167 165 161
26 15 11 4 354 350 346 344 338 331 327 325 327 328 323 320 319 318 316 309 301 297 297 297 293 288 282 281 279 271 267 266 264 264 267 268 269 270 268 266 265 262 262 262 258 253 246 242 238 232 233 238 238 236 231 228 228 229 228 230 226 221 220 216 218 222 214 210 213 207 209 220 215 204 205 204 197 191 182 177 176 174 171 168 163
32 25 20 12 3 2 359 351 348 341 336 335 334 334 327 322 317 310 308 306 302 297 296 295 290 289 288 288 286 275 262 258 260 265 268 265 264 269 273 273 273 269 265 261 257 254 249 244 241 237 234 234 236 238 236 229 227 227 227 229 228 223 219 216 221 225 215 208 211 209 206 214 217 207 203 204 199 193 186 181 178 177 174 168 165
33 26 22 18 13 8 1 356 355 351 347 343 336 334 330 325 318 314 312 307 304 304 303 300 298 305 308 303 298 287 259 244 251 266 269 266 267 273 278 279 277 275 272 264 257 253 252 248 243 240 238 236 233 233 234 231 228 226 225 226 228 226 222 218 221 223 219 212 209 210 207 210 216 210 204 204 200 196 191 185 180 178 177 172 168
32 27 23 19 16 9 1 357 356 358 359 353 345 342 336 332 328 325 322 313 308 310 307 305 310 314 309 301 305 310 285 249 249 265 268 271 275 276 277 277 276 278 276 268 262 258 254 251 247 243 240 238 235 232 230 229 229 228 225 225 226 227 226 221 221 222 220 216 211 209 209 211 214 210 206 204 200 198 195 189 185 181 179 178 173
41 37 33 29 25 20 16 11 6 9 12 8 4 1 352 345 340 335 329 321 316 317 314 311 313 313 307 303 304 300 295 306 308 294 283 278 277 277 278 278 276 277 276 271 267 263 258 253 247 245 243 240 237 235 232 229 230 231 229 227 226 227 227 224 222 222 221 217 213 210 209 211 213 210 207 205 201 198 197 193 189 186 183 181 178
51 49 45 45 42 34 31 28 21 17 15 12 10 6 359 353 349 341 332 324 320 317 311 308 306 304 299 299 301 294 301 322 318 303 292 287 283 281 280 280 280 278 276 274 272 268 262 257 250 244 243 243 240 238 235 231 229 229 230 229 228 226 226 225 223 223 220 217 214 211 212 213 212 211 207 205 203 198 198 197 191 188 187 184 183
56 55 53 52 49 43 38 34 27 19 14 10 6 0 356 354 351 344 333 326 322 314 307 307 308 301 292 287 287 289 297 311 312 302 298 295 290 285 282 282 282 280 278 276 275 272 266 261 255 247 242 240 239 238 237 233 229 227 227 227 228 227 225 224 223 223 222 219 216 212 211 214 212 210 208 205 204 199 198 198 194 192 191 188 186
52 53 52 51 47 43 37 29 21 12 6 4 359 355 350 343 341 339 329 320 317 310 305 308 307 302 300 297 291 289 290 293 294 298 302 298 295 291 288 286 283 281 280 279 277 274 268 263 258 250 245 239 234 234 236 236 232 231 230 228 228 228 227 225 222 223 223 221 220 216 211 213 212 210 208 206 204 202 199 198 197 195 193 191 189
49 48 47 44 39 35 29 19 10 4 2 359 355 351 344 335 334 333 327 320 316 309 305 309 308 306 309 305 298 295 292 288 288 292 297 298 300 296 295 295 289 283 280 279 278 274 270 266 260 252 247 243 236 232 234 236 234 233 233 232 230 228 229 227 224 224 223 222 222 219 214 212 211 209 208 208 205 203 201 199 198 195 193 193 190
45 43 42 38 35 34 28 21 15 12 7 358 352 347 341 336 336 336 334 330 323 316 316 320 317 313 313 308 304 302 296 292 291 291 293 297 301 301 302 301 294 289 285 281 279 276 272 268 263 257 250 245 241 234 232 233 233 232 234 236 234 229 228 229 227 225 224 224 221 219 217 212 209 208 208 209 207 204 202 198 197 195 194 194 191
41 44 47 44 43 45 42 36 32 26 15 3 356 350 345 343 340 338 339 335 330 327 326 324 319 316 315 311 307 305 302 300 297 297 298 297 298 300 301 301 298 296 293 287 284 279 275 270 263 258 253 248 243 238 234 232 232 233 234 238 236 231 228 228 229 226 225 226 223 221 221 214 209 208 207 209 208 204 204 199 196 197 195 194 193
46 49 55 53 49 48 46 38 31 26 17 8 0 355 354 354 351 347 346 343 339 335 330 326 324 320 318 315 312 312 313 311 308 309 307 302 301 300 300 302 303 301 297 293 291 283 277 273 267 259 254 251 247 243 238 233 233 234 232 233 235 233 229 227 229 227 225 225 224 224 224 215 211 211 208 209 208 204 205 201 197 198 196 195 194
48 46 49 47 42 39 36 31 25 22 16 8 4 4 6 6 4 0 357 353 350 347 340 336 334 329 325 323 320 318 318 318 318 317 316 313 310 303 302 306 305 301 301 300 295 287 277 274 271 264 257 252 250 248 242 235 233 236 234 229 232 235 232 228 229 228 225 224 223 224 225 218 215 214 209 208 208 205 205 202 199 199 197 195 194
50 43 39 38 36 34 31 29 24 20 15 13 14 14 16 16 13 10 6 2 358 355 350 346 344 340 335 330 326 323 320 321 321 320 320 318 314 309 309 311 308 303 302 300 296 292 285 277 271 267 261 256 254 250 246 240 235 237 237 232 232 236 235 231 230 229 227 225 222 222 224 223 220 215 210 208 207 205 204 201 200 200 199 196 194
55 47 40 38 41 37 33 32 29 26 23 22 23 21 22 23 19 15 11 5 1 356 352 350 349 347 344 339 335 330 326 325 325 323 322 320 316 314 313 310 308 305 302 300 298 295 291 286 280 274 268 262 257 252 250 247 240 238 238 236 234 237 237 233 230 229 228 226 223 222 223 224 222 215 211 209 207 204 203 201 200 201 200 197 194
59 53 48 46 46 42 39 38 34 32 29 26 25 23 23 25 23 18 14 8 4 359 355 352 350 348 347 343 338 334 332 331 330 328 326 323 319 317 317 315 312 311 307 306 302 296 293 294 292 285 277 269 261 251 247 247 242 239 241 239 235 236 237 235 230 228 228 228 225 224 223 224 224 220 215 211 207 204 201 201 201 202 202 199 195
63 58 54 52 50 46 43 40 37 34 31 29 28 25 23 24 23 19 15 11 8 4 0 356 353 351 348 345 340 336 336 335 333 332 329 327 326 324 326 327 324 322 317 312 309 303 302 303 298 289 284 279 269 257 247 245 244 243 243 241 236 235 236 235 232 229 228 229 226 225 224 224 225 224 219 212 207 204 201 201 202 202 203 200 196
68 62 58 55 51 48 44 41 39 36 34 32 30 27 25 25 22 19 15 10 10 9 5 0 356 354 351 349 345 340 339 337 334 333 331 330 330 329 329 329 326 323 317 313 312 306 309 312 307 298 295 290 278 269 259 250 248 244 241 240 238 238 237 234 233 229 227 227 226 225 225 225 225 224 222 215 208 205 203 203 203 202 203 201 196
71 67 62 57 51 48 46 43 41 38 36 35 31 29 29 26 23 19 14 10 9 9 6 2 358 354 352 351 349 345 343 340 336 334 334 333 333 330 328 327 326 322 315 312 306 303 309 313 311 309 307 299 289 281 275 264 256 246 237 238 240 241 240 235 232 230 228 226 225 225 225 225 225 224 222 218 211 205 203 204 204 203 204 201 196
71 67 63 58 53 50 47 45 43 39 37 36 32 32 31 28 25 20 14 9 7 6 3 1 357 353 352 350 350 349 344 342 339 337 336 335 334 332 327 325 324 321 318 315 304 304 310 311 309 310 309 304 297 287 284 280 270 256 243 239 241 242 241 236 233 231 228 227 225 225 226 225 225 224 221 217 213 207 203 205 206 205 205 202 196
67 66 62 58 55 52 49 46 44 41 38 36 33 32 30 28 24 19 15 11 9 6 2 1 358 354 352 351 351 351 347 343 341 339 338 337 335 332 329 327 323 321 321 317 306 302 307 309 308 308 309 308 303 292 288 289 280 265 253 246 243 243 240 237 235 231 229 229 227 225 226 225 223 223 221 219 216 210 205 205 206 206 207 204 198
64 62 60 58 55 53 51 47 44 41 38 36 33 31 29 26 23 18 13 11 9 6 2 1 0 357 354 352 352 352 350 346 342 340 339 338 336 332 330 329 325 323 324 317 309 303 305 309 310 309 309 309 305 295 288 288 281 268 255 247 243 239 238 237 235 232 230 229 227 226 226 224 222 222 222 221 218 212 207 205 205 206 208 207 200
62 59 57 56 54 52 50 46 43 39 36 34 31 29 26 23 20 16 11 8 6 4 1 0 0 359 357 354 354 353 350 347 343 341 340 338 336 331 329 330 325 323 324 317 310 304 304 308 310 310 310 308 304 299 290 284 283 274 258 248 244 239 239 238 233 231 231 229 227 227 227 225 221 220 220 220 218 213 208 205 205 206 208 208 203
60 57 55 54 52 51 49 45 42 37 34 31 27 24 22 18 16 13 9 7 4 1 0 360 359 359 358 356 356 354 350 347 344 342 341 338 336 332 329 329 324 320 321 317 312 307 303 304 306 307 308 306 303 300 293 284 281 278 266 255 250 245 242 238 233 232 233 230 229 228 227 225 221 218 218 218 217 214 209 205 204 206 208 208 204
58 56 54 53 51 50 48 44 40 36 32 28 23 20 16 12 9 7 5 4 2 1 0 359 358 358 358 357 356 354 350 347 344 342 341 339 336 333 329 328 325 320 318 315 310 307 303 302 302 302 304 303 300 298 295 287 281 277 270 263 257 250 244 238 233 232 232 232 231 229 228 225 221 217 216 216 215 213 211 208 206 206 207 207 205
59 55 53 53 52 50 48 44 40 35 30 25 20 16 11 7 4 2 2 0 0 2 1 0 0 359 358 357 355 355 352 348 345 343 341 339 336 333 330 328 325 321 317 314 309 305 302 301 301 300 301 301 299 298 296 289 283 278 273 268 263 254 243 234 229 227 230 233 232 230 229 226 222 218 216 215 214 212 211 210 208 207 208 206 203
60 57 55 55 54 52 51 47 42 37 31 25 19 14 8 4 360 359 0 0 360 2 3 3 3 0 359 357 355 355 353 349 347 344 341 340 336 333 329 326 324 321 317 314 310 305 302 300 300 300 300 300 300 299 297 291 286 282 278 274 267 259 247 236 228 225 227 231 231 230 229 227 224 220 216 214 213 211 210 209 208 208 209 207 202
63 59 57 57 57 56 53 49 44 38 31 26 19 13 7 2 358 357 360 2 2 4 5 5 5 3 0 358 355 354 352 349 346 343 340 339 336 331 328 324 322 321 317 314 311 308 304 301 301 301 300 300 299 296 295 296 290 282 277 274 269 262 250 237 229 224 223 226 230 231 230 229 227 223 218 214 212 210 209 209 208 208 209 207 204
63 59 58 59 60 59 56 52 46 38 31 26 21 16 8 360 356 357 1 4 5 7 7 5 5 4 0 357 355 352 350 347 344 340 338 336 333 329 326 323 321 318 315 313 311 309 307 304 303 303 301 301 300 297 298 299 294 285 279 273 268 264 253 238 231 226 219 220 225 228 229 227 225 221 217 213 211 209 208 208 208 207 208 207 205
63 59 58 60 61 61 59 54 46 38 30 26 23 18 10 3 358 359 3 6 8 9 7 5 5 3 359 357 354 350 348 346 343 340 336 333 330 326 322 320 318 316 313 310 308 308 308 306 305 305 303 301 301 301 302 300 297 296 295 283 270 265 261 248 235 227 219 218 221 222 224 223 220 217 213 210 209 208 206 206 207 207 207 208 206
63 60 59 61 62 60 59 54 46 37 27 24 22 16 13 13 8 3 6 9 10 9 7 5 4 2 359 356 353 350 349 346 344 342 336 332 329 325 321 319 315 312 308 306 306 306 305 305 304 305 303 300 299 300 299 297 296 298 298 291 276 266 264 258 240 223 218 219 218 215 219 221 218 214 212 210 208 205 204 205 206 206 207 208 208
64 62 60 61 62 59 59 54 45 36 26 22 19 15 18 26 22 11 8 10 10 10 8 6 3 0 358 356 353 350 349 347 345 342 337 332 329 326 324 322 318 312 307 304 305 305 302 301 300 301 301 298 297 297 295 295 296 295 295 296 290 274 258 254 248 223 217 219 214 209 214 218 214 212 212 211 209 205 203 204 206 207 207 208 208
66 63 61 61 60 57 57 53 46 36 26 21 19 17 22 31 30 22 14 12 11 10 8 6 3 1 357 355 353 351 349 347 345 343 339 334 331 328 326 325 322 318 312 307 304 301 298 296 294 294 294 294 295 295 293 295 297 296 296 297 296 285 263 244 242 236 222 217 212 208 212 214 211 208 210 211 209 205 204 205 208 209 208 208 208
69 64 61 60 57 54 53 50 46 37 26 21 19 19 23 29 32 30 20 14 13 11 8 6 2 1 358 354 353 351 348 347 347 345 342 336 333 330 328 327 323 319 316 311 306 302 298 295 292 290 289 290 292 291 291 293 294 293 291 289 289 288 276 253 241 240 232 218 209 206 208 210 207 205 207 209 207 204 204 206 207 208 208 208 207
68 64 60 58 54 52 49 47 46 37 26 21 20 20 22 27 32 30 20 14 13 10 8 6 2 1 359 356 353 350 348 348 348 348 345 339 335 332 329 328 325 322 320 317 313 310 306 301 297 293 289 288 288 287 288 289 287 285 283 281 281 284 282 276 264 250 238 223 211 206 205 207 205 204 206 206 203 202 205 206 206 207 208 208 206
67 63 60 57 54 51 46 44 46 39 27 22 22 21 21 26 31 26 15 12 13 9 5 5 3 2 1 358 355 352 350 349 350 351 349 343 336 334 332 329 328 325 323 322 319 314 310 306 301 296 291 288 287 287 287 287 284 280 276 274 276 278 279 284 282 263 243 229 216 208 206 206 202 202 205 203 200 200 203 206 208 208 207 207 207
68 64 61 58 54 50 46 42 43 41 29 23 24 24 22 25 27 20 13 11 11 8 5 4 4 3 2 360 357 355 353 351 352 355 354 348 341 338 336 333 331 328 326 325 322 317 314 311 307 302 298 294 293 291 291 291 289 285 278 270 270 274 272 274 276 260 241 230 219 211 209 205 199 200 203 199 197 199 200 203 207 208 207 207 207
67 65 63 61 56 52 48 43 39 40 31 25 25 25 23 24 23 15 11 12 9 7 7 5 4 4 3 2 1 359 356 354 356 358 358 353 346 343 341 336 334 332 330 329 327 325 322 319 314 311 306 303 301 299 298 297 296 293 283 265 260 265 263 258 260 252 237 228 219 212 211 208 198 198 199 195 194 197 198 200 204 206 207 208 206
67 66 66 64 61 56 51 44 39 38 33 27 25 25 22 23 23 17 12 11 9 8 8 6 5 4 2 4 6 3 358 357 359 1 1 357 351 347 346 340 335 335 335 333 330 329 328 325 323 320 316 314 312 308 305 303 300 299 287 265 259 260 256 249 252 252 239 229 222 215 213 211 199 194 193 188 190 196 197 199 202 203 205 207 205
68 68 66 64 61 56 51 47 40 38 35 27 25 25 23 22 23 20 14 11 9 7 7 5 4 4 2 3 5 4 3 3 3 2 2 360 355 351 349 345 339 337 336 333 330 330 330 330 330 328 324 323 322 317 313 312 308 304 293 278 268 260 253 250 250 248 241 231 223 216 213 208 193 189 188 178 177 196 197 197 198 198 200 202 201